TimeCST,TemperatureF,Dew PointF,Humidity,Sea Level PressureIn,VisibilityMPH,Wind Direction,Wind SpeedMPH,Gust SpeedMPH,PrecipitationIn,Events,Conditions,WindDirDegrees,DateUTC
12:56 AM,6.1,-4.0,63,30.44,-9999.0,Calm,Calm,-,N/A,,Unknown,0,2012-12-26 06:56:00
1:56 AM,3.9,-6.0,64,30.45,-9999.0,Variable,4.6,-,N/A,,Unknown,0,2012-12-26 07:56:00
2:56 AM,3.9,-5.1,66,30.45,-9999.0,NNW,3.5,-,N/A,,Unknown,340,2012-12-26 08:56:00
3:56 AM,5.0,-2.9,70,30.44,-9999.0,NNW,6.9,-,N/A,,Unknown,340,2012-12-26 09:56:00
5:56 AM,10.0,1.9,70,30.44,-9999.0,NNW,4.6,-,N/A,,Unknown,340,2012-12-26 11:56:00
6:56 AM,12.0,3.9,70,30.44,-9999.0,Calm,Calm,-,N/A,,Unknown,0,2012-12-26 12:56:00
7:56 AM,14.0,6.1,71,30.44,-9999.0,Calm,Calm,-,N/A,,Unknown,0,2012-12-26 13:56:00
8:56 AM,15.1,8.1,74,30.43,-9999.0,North,3.5,-,N/A,,Unknown,350,2012-12-26 14:56:00
9:56 AM,17.1,9.0,71,30.43,-9999.0,Calm,Calm,-,N/A,,Unknown,0,2012-12-26 15:56:00
10:56 AM,18.0,9.0,68,30.41,-9999.0,NE,3.5,-,N/A,,Unknown,50,2012-12-26 16:56:00
11:56 AM,19.0,10.9,71,30.39,-9999.0,ENE,6.9,-,N/A,,Unknown,60,2012-12-26 17:56:00
12:56 PM,19.9,10.9,68,30.38,-9999.0,Calm,Calm,-,N/A,,Unknown,0,2012-12-26 18:56:00
1:56 PM,21.9,12.0,66,30.37,-9999.0,Calm,Calm,-,N/A,,Unknown,0,2012-12-26 19:56:00
2:56 PM,21.9,14.0,72,30.37,-9999.0,Calm,Calm,-,N/A,,Unknown,0,2012-12-26 20:56:00
3:56 PM,23.0,15.1,72,30.37,-9999.0,ENE,5.8,-,N/A,,Unknown,60,2012-12-26 21:56:00
4:56 PM,21.9,14.0,72,30.37,-9999.0,NNE,3.5,-,N/A,,Unknown,20,2012-12-26 22:56:00
5:56 PM,21.9,14.0,72,30.36,-9999.0,Calm,Calm,-,N/A,,Unknown,0,2012-12-26 23:56:00
6:56 PM,21.0,12.0,68,30.35,-9999.0,North,6.9,-,N/A,,Unknown,350,2012-12-27 00:56:00
7:56 PM,21.0,10.9,65,30.35,-9999.0,NNW,6.9,-,N/A,,Unknown,340,2012-12-27 01:56:00
8:56 PM,21.0,10.9,65,30.35,-9999.0,NNE,3.5,-,N/A,,Unknown,30,2012-12-27 02:56:00
9:56 PM,19.0,10.0,68,30.35,-9999.0,Calm,Calm,-,N/A,,Unknown,0,2012-12-27 03:56:00
10:56 PM,19.0,10.9,71,30.35,-9999.0,North,3.5,-,N/A,,Unknown,360,2012-12-27 04:56:00
11:56 PM,18.0,9.0,68,30.33,-9999.0,NNW,4.6,-,N/A,,Unknown,340,2012-12-27 05:56:00